THOR ABLESTAR DEB, 330

Orbit data source: Space-Track

THOR ABLESTAR DEB, 330 is space debris in LEO originally from a launch on Thu, 29 Jun 1961 UTC launched from the Air Force Eastern Test Range (AFETR). Debris objects in space refer to the collection of defunct objects orbiting the Earth. Examples of debris include non-operational satellites, rocket bodies, and fragments generated from explosions, collisions, or faulty payload assembly.

Loading next visibility...
Identifier
330, 1961-015DG
Orbit
LEO
Country
Flag of USUS
Related business
Manufacturer
Unknown
Mission
Spacecraft
Bus & Motor
Unknown
Mass
Unknown
Launch date (UTC)
1961-06-29 (64 years ago)
Launch vehicle
Unknown
Launch site
Air Force Eastern Test Range (AFETR)
Object type
Payload
Rocket body
Debris
Shape & HBR
Unknown shape, 0.1 m
Radar Cross Section
Small (<0.1 m²)

Expand to show TLE details & history
Last TLE update: 1 day ago

TLE from 1 day ago
0 THOR ABLESTAR DEB
1 00330U 61015DG  25315.22795002  .00001648  00000-0  10316-2 0  9994
2 00330  66.9771 126.1919 0054003 279.6454  79.8536 14.06336499266054
Epoch: 2025-11-11T05:28Z
TLE epoch observation values (Epoch: 2025-11-11T05:28:14.881Z)
Latitude
-0.00003°
Longitude
-6.48764°
Altitude
867.347 km
Speed
7.423 km/s
True Right ascension
08h 24m 46s
True Declination
0° 00' 00"
Sunlit
Object was in daylight at epoch
Visualization orbit readout
Latitude
Unknown
Longitude
Unknown
Altitude
Unknown
Speed
Unknown
Apparent Right ascension
Unknown
Apparent Declination
Unknown
Sunlit
N/A
Visualization observer readout
Local Sidereal Time
02:23:51
Azimuth
Unknown
Elevation
Unknown
Doppler factor
Unknown
Orbital elements
Apogee altitude
909.44 km
Perigee altitude
831.153 km
Semi-major axis
7,248.433 km
Eccentricity
0.0054
Inclination
66.9771°
RAAN
126.1919°
Arg. of periapsis
279.6454°
True anomaly
80.46346°
Mean anomaly
79.8536°
Eccentric anomaly
80.15846°
Mean motion
3.51704 °/min
Orbital period
102.36 mins
BSTAR
0.0010316
Loading maneuver chart data...
Computing Atmospheric mass density...

Documentation

Showing up to 5 results
|